QPF
0.10 0.11 0.11 0.11 0.09 0.08 0.08 0.08 0.08 0.08 0.07 0.06 0.05 0.05 0.05 0.04 0.05 0.04 0.03 0.03 0.03 0.02 0.02 0.03 0.03 0.03 0.04 0.04 0.04 0.05 0.05 0.05 0.03 0.04 0.06 0.08 0.08 0.09
0.07 0.07 0.07 0.08 0.09 0.08 0.08 0.07 0.06 0.06 0.06 0.06 0.05 0.04 0.03 0.03 0.04 0.03 0.03 0.03 0.03 0.03 0.03 0.03 0.04 0.04 0.04 0.05 0.05 0.04 0.04 0.04 0.03 0.03 0.05 0.08 0.09 0.10
0.07 0.08 0.08 0.07 0.06 0.05 0.06 0.06 0.05 0.05 0.05 0.04 0.03 0.02 0.03 0.03 0.04 0.04 0.04 0.04 0.03 0.03 0.03 0.03 0.04 0.05 0.05 0.05 0.05 0.04 0.04 0.03 0.03 0.03 0.04 0.06 0.08 0.10
0.09 0.09 0.09 0.08 0.07 0.05 0.05 0.05 0.05 0.05 0.05 0.04 0.03 0.03 0.03 0.03 0.03 0.04 0.05 0.04 0.03 0.03 0.03 0.04 0.04 0.05 0.05 0.05 0.05 0.05 0.04 0.04 0.04 0.04 0.04 0.05 0.06 0.07
0.08 0.09 0.07 0.07 0.06 0.06 0.06 0.06 0.06 0.06 0.06 0.06 0.04 0.03 0.04 0.04 0.04 0.05 0.06 0.05 0.04 0.04 0.04 0.04 0.05 0.05 0.05 0.05 0.05 0.05 0.05 0.05 0.06 0.07 0.06 0.06 0.06 0.07
0.03 0.03 0.03 0.03 0.03 0.04 0.04 0.04 0.04 0.05 0.05 0.05 0.04 0.04 0.03 0.04 0.05 0.05 0.05 0.05 0.06 0.05 0.05 0.04 0.03 0.03 0.03 0.03 0.04 0.05 0.05 0.06 0.06 0.06 0.07 0.08 0.09 0.09
0.03 0.02 0.02 0.02 0.02 0.02 0.02 0.03 0.03 0.03 0.04 0.04 0.04 0.04 0.04 0.04 0.04 0.04 0.04 0.04 0.05 0.04 0.04 0.04 0.04 0.03 0.03 0.03 0.03 0.04 0.05 0.05 0.05 0.06 0.08 0.08 0.09 0.10
0.02 0.02 0.02 0.02 0.02 0.03 0.03 0.03 0.03 0.03 0.04 0.04 0.05 0.05 0.05 0.04 0.04 0.04 0.04 0.04 0.04 0.04 0.04 0.04 0.03 0.04 0.03 0.03 0.03 0.03 0.04 0.05 0.05 0.06 0.08 0.08 0.08 0.10
0.01 0.01 0.01 0.01 0.01 0.02 0.02 0.03 0.03 0.05 0.05 0.05 0.05 0.05 0.04 0.04 0.04 0.03 0.03 0.03 0.03 0.03 0.04 0.05 0.05 0.04 0.04 0.03 0.03 0.03 0.03 0.03 0.03 0.05 0.05 0.06 0.07 0.08
0.01 0.01 0.01 0.01 0.01 0.01 0.02 0.03 0.03 0.04 0.03 0.02 0.02 0.02 0.02 0.02 0.02 0.03 0.03 0.03 0.03 0.03 0.03 0.04 0.04 0.05 0.04 0.04 0.04 0.03 0.03 0.03 0.03 0.04 0.04 0.05 0.06 0.06
0.02 0.01 0.01 0.02 0.03 0.03 0.02 0.03 0.03 0.03 0.02 0.02 0.02 0.02 0.03 0.03 0.02 0.02 0.03 0.03 0.04 0.04 0.04 0.03 0.03 0.02 0.03 0.03 0.03 0.04 0.03 0.03 0.03 0.03 0.04 0.04 0.05 0.06
0.03 0.02 0.02 0.02 0.02 0.03 0.02 0.02 0.02 0.02 0.01 0.01 0.01 0.01 0.01 0.01 0.02 0.02 0.02 0.03 0.03 0.04 0.05 0.05 0.04 0.03 0.04 0.04 0.03 0.04 0.03 0.02 0.02 0.03 0.03 0.04 0.05 0.06
0.02 0.03 0.03 0.03 0.02 0.02 0.02 0.02 0.03 0.02 0.02 0.02 0.02 0.01 0.01 0.01 0.01 0.01 0.01 0.03 0.04 0.03 0.03 0.05 0.07 0.05 0.05 0.04 0.04 0.04 0.04 0.04 0.03 0.03 0.03 0.03 0.04 0.05
0.01 0.01 0.02 0.03 0.04 0.04 0.03 0.03 0.03 0.03 0.02 0.02 0.02 0.02 0.02 0.02 0.01 0.01 0.01 0.02 0.03 0.03 0.02 0.04 0.06 0.07 0.07 0.05 0.04 0.04 0.04 0.04 0.05 0.04 0.03 0.04 0.04 0.05
0.00 0.01 0.01 0.01 0.02 0.04 0.05 0.05 0.04 0.03 0.03 0.03 0.02 0.02 0.02 0.02 0.02 0.02 0.02 0.02 0.02 0.03 0.03 0.03 0.04 0.05 0.06 0.07 0.06 0.04 0.04 0.05 0.05 0.06 0.05 0.04 0.04 0.05
0.00 0.00 0.00 0.01 0.01 0.01 0.02 0.02 0.02 0.03 0.03 0.03 0.03 0.02 0.02 0.02 0.02 0.02 0.02 0.02 0.03 0.03 0.02 0.03 0.03 0.04 0.05 0.05 0.06 0.06 0.06 0.06 0.06 0.06 0.06 0.05 0.05 0.05
0.01 0.00 0.00 0.00 0.00 0.01 0.01 0.01 0.01 0.01 0.02 0.02 0.02 0.02 0.02 0.02 0.02 0.02 0.03 0.03 0.03 0.03 0.02 0.02 0.03 0.03 0.04 0.05 0.06 0.06 0.06 0.07 0.07 0.07 0.07 0.06 0.06 0.06
0.01 0.00 0.00 0.00 0.01 0.01 0.01 0.01 0.01 0.01 0.01 0.01 0.02 0.02 0.02 0.03 0.03 0.02 0.02 0.02 0.02 0.02 0.02 0.02 0.02 0.04 0.05 0.05 0.05 0.05 0.06 0.06 0.07 0.08 0.08 0.07 0.07 0.07
0.00 0.01 0.01 0.01 0.01 0.01 0.01 0.01 0.01 0.01 0.01 0.01 0.02 0.02 0.02 0.02 0.02 0.02 0.02 0.02 0.02 0.02 0.02 0.02 0.03 0.04 0.05 0.04 0.04 0.04 0.05 0.06 0.07 0.08 0.08 0.08 0.09 0.09
0.00 0.00 0.01 0.01 0.01 0.01 0.02 0.02 0.02 0.01 0.01 0.01 0.02 0.02 0.02 0.02 0.02 0.02 0.02 0.02 0.02 0.02 0.02 0.02 0.03 0.04 0.06 0.05 0.04 0.04 0.04 0.05 0.07 0.08 0.09 0.09 0.10 0.10
0.00 0.00 0.00 0.00 0.01 0.01 0.01 0.01 0.01 0.02 0.02 0.02 0.02 0.02 0.02 0.02 0.02 0.02 0.02 0.02 0.02 0.02 0.02 0.02 0.02 0.03 0.04 0.04 0.04 0.03 0.04 0.05 0.06 0.08 0.09 0.09 0.09 0.10
0.00 0.00 0.00 0.01 0.01 0.01 0.01 0.01 0.01 0.01 0.01 0.01 0.01 0.01 0.02 0.02 0.02 0.02 0.02 0.02 0.02 0.02 0.02 0.02 0.02 0.02 0.03 0.03 0.04 0.04 0.04 0.05 0.06 0.08 0.09 0.09 0.09 0.09
0.00 0.00 0.00 0.00 0.00 0.01 0.01 0.01 0.01 0.01 0.01 0.01 0.01 0.01 0.02 0.02 0.01 0.01 0.02 0.02 0.02 0.02 0.02 0.02 0.02 0.02 0.02 0.03 0.03 0.04 0.04 0.05 0.06 0.08 0.09 0.09 0.08 0.07
MSLP
1005.97 1006.43 1006.90 1007.37 1007.83 1008.27 1008.71 1009.18 1009.69 1010.27 1010.92 1011.63 1012.37 1013.10 1013.77 1014.36 1014.82 1015.14 1015.34 1015.43 1015.43 1015.37 1015.30 1015.22 1015.13 1015.06 1014.97 1014.87 1014.74 1014.58 1014.39 1014.16 1013.91 1013.64 1013.33 1012.99 1012.61 1012.18
1005.88 1006.32 1006.79 1007.27 1007.74 1008.22 1008.72 1009.25 1009.83 1010.48 1011.19 1011.95 1012.73 1013.48 1014.15 1014.72 1015.16 1015.45 1015.60 1015.64 1015.58 1015.48 1015.36 1015.24 1015.12 1015.01 1014.90 1014.78 1014.63 1014.44 1014.22 1013.96 1013.67 1013.34 1012.99 1012.61 1012.18 1011.72
1006.25 1006.65 1007.09 1007.56 1008.04 1008.53 1009.05 1009.61 1010.24 1010.92 1011.66 1012.44 1013.21 1013.95 1014.60 1015.12 1015.50 1015.73 1015.82 1015.79 1015.68 1015.52 1015.34 1015.17 1015.02 1014.88 1014.74 1014.59 1014.41 1014.19 1013.93 1013.62 1013.28 1012.91 1012.50 1012.07 1011.61 1011.13
1007.03 1007.40 1007.80 1008.24 1008.69 1009.17 1009.69 1010.25 1010.88 1011.56 1012.29 1013.04 1013.78 1014.47 1015.05 1015.51 1015.82 1015.97 1015.98 1015.88 1015.70 1015.49 1015.26 1015.05 1014.86 1014.68 1014.51 1014.33 1014.12 1013.87 1013.56 1013.21 1012.81 1012.38 1011.92 1011.44 1010.95 1010.45
1008.15 1008.47 1008.83 1009.22 1009.63 1010.08 1010.56 1011.09 1011.68 1012.32 1013.00 1013.69 1014.37 1014.97 1015.48 1015.85 1016.08 1016.15 1016.09 1015.92 1015.68 1015.41 1015.14 1014.89 1014.67 1014.46 1014.27 1014.06 1013.81 1013.52 1013.17 1012.76 1012.31 1011.82 1011.31 1010.79 1010.27 1009.75
1009.46 1009.74 1010.05 1010.38 1010.74 1011.13 1011.55 1012.02 1012.54 1013.11 1013.71 1014.32 1014.90 1015.42 1015.83 1016.12 1016.26 1016.26 1016.13 1015.91 1015.62 1015.31 1015.01 1014.73 1014.48 1014.25 1014.03 1013.80 1013.52 1013.19 1012.80 1012.35 1011.84 1011.29 1010.73 1010.17 1009.62 1009.10
1010.82 1011.05 1011.30 1011.58 1011.87 1012.19 1012.54 1012.93 1013.36 1013.83 1014.34 1014.85 1015.33 1015.75 1016.08 1016.28 1016.35 1016.29 1016.12 1015.86 1015.54 1015.21 1014.89 1014.59 1014.33 1014.08 1013.84 1013.58 1013.28 1012.92 1012.49 1011.99 1011.44 1010.85 1010.24 1009.64 1009.07 1008.53
1012.06 1012.25 1012.46 1012.68 1012.91 1013.15 1013.41 1013.71 1014.05 1014.43 1014.83 1015.24 1015.63 1015.96 1016.21 1016.35 1016.37 1016.28 1016.07 1015.80 1015.47 1015.12 1014.79 1014.49 1014.21 1013.95 1013.70 1013.42 1013.10 1012.71 1012.25 1011.72 1011.13 1010.50 1009.86 1009.23 1008.64 1008.09
1013.10 1013.26 1013.42 1013.59 1013.76 1013.93 1014.12 1014.33 1014.58 1014.86 1015.17 1015.49 1015.80 1016.07 1016.26 1016.36 1016.35 1016.23 1016.02 1015.73 1015.40 1015.06 1014.73 1014.41 1014.13 1013.86 1013.60 1013.30 1012.96 1012.56 1012.08 1011.52 1010.91 1010.26 1009.60 1008.94 1008.33 1007.78
1013.89 1014.02 1014.16 1014.28 1014.40 1014.51 1014.63 1014.77 1014.94 1015.15 1015.39 1015.64 1015.89 1016.10 1016.26 1016.33 1016.31 1016.19 1015.97 1015.69 1015.37 1015.02 1014.69 1014.37 1014.07 1013.79 1013.51 1013.20 1012.85 1012.43 1011.94 1011.38 1010.76 1010.10 1009.43 1008.77 1008.15 1007.59
1014.45 1014.57 1014.67 1014.77 1014.85 1014.92 1014.99 1015.08 1015.20 1015.36 1015.54 1015.75 1015.96 1016.14 1016.28 1016.34 1016.31 1016.18 1015.97 1015.69 1015.36 1015.01 1014.67 1014.33 1014.02 1013.72 1013.42 1013.10 1012.74 1012.31 1011.82 1011.26 1010.65 1010.00 1009.34 1008.68 1008.07 1007.50
1014.83 1014.94 1015.04 1015.12 1015.18 1015.23 1015.27 1015.33 1015.42 1015.54 1015.70 1015.88 1016.07 1016.24 1016.36 1016.41 1016.37 1016.24 1016.02 1015.73 1015.39 1015.02 1014.66 1014.30 1013.97 1013.64 1013.32 1012.99 1012.61 1012.19 1011.70 1011.16 1010.57 1009.93 1009.29 1008.66 1008.05 1007.48
1015.10 1015.21 1015.32 1015.40 1015.46 1015.50 1015.53 1015.58 1015.66 1015.77 1015.91 1016.09 1016.26 1016.42 1016.53 1016.56 1016.51 1016.36 1016.13 1015.81 1015.45 1015.05 1014.65 1014.27 1013.90 1013.55 1013.21 1012.85 1012.47 1012.05 1011.58 1011.06 1010.49 1009.89 1009.28 1008.66 1008.07 1007.51
1015.28 1015.42 1015.55 1015.64 1015.71 1015.76 1015.80 1015.86 1015.94 1016.05 1016.20 1016.37 1016.54 1016.68 1016.78 1016.79 1016.71 1016.54 1016.27 1015.92 1015.52 1015.09 1014.65 1014.23 1013.82 1013.45 1013.08 1012.71 1012.33 1011.91 1011.45 1010.95 1010.41 1009.85 1009.27 1008.68 1008.11 1007.55
1015.41 1015.58 1015.73 1015.85 1015.95 1016.02 1016.08 1016.15 1016.25 1016.38 1016.53 1016.71 1016.87 1017.00 1017.08 1017.06 1016.95 1016.74 1016.42 1016.03 1015.59 1015.11 1014.64 1014.18 1013.75 1013.34 1012.95 1012.57 1012.18 1011.77 1011.32 1010.85 1010.33 1009.80 1009.25 1008.69 1008.13 1007.57
1015.44 1015.66 1015.85 1016.01 1016.13 1016.23 1016.32 1016.42 1016.55 1016.69 1016.87 1017.04 1017.20 1017.32 1017.37 1017.32 1017.17 1016.91 1016.56 1016.12 1015.63 1015.12 1014.61 1014.13 1013.67 1013.24 1012.84 1012.45 1012.05 1011.64 1011.20 1010.74 1010.25 1009.73 1009.21 1008.67 1008.12 1007.55
1015.36 1015.63 1015.86 1016.05 1016.21 1016.34 1016.47 1016.61 1016.76 1016.94 1017.13 1017.31 1017.47 1017.58 1017.60 1017.52 1017.33 1017.03 1016.64 1016.16 1015.64 1015.10 1014.57 1014.07 1013.59 1013.15 1012.74 1012.34 1011.94 1011.52 1011.09 1010.62 1010.14 1009.64 1009.12 1008.60 1008.05 1007.48
1015.11 1015.43 1015.70 1015.93 1016.13 1016.30 1016.47 1016.65 1016.84 1017.05 1017.26 1017.46 1017.62 1017.72 1017.72 1017.62 1017.40 1017.07 1016.64 1016.14 1015.60 1015.05 1014.51 1014.00 1013.52 1013.08 1012.66 1012.26 1011.85 1011.42 1010.98 1010.51 1010.02 1009.52 1009.00 1008.48 1007.94 1007.36
1014.70 1015.06 1015.37 1015.64 1015.87 1016.08 1016.29 1016.52 1016.75 1017.00 1017.24 1017.47 1017.64 1017.73 1017.73 1017.60 1017.36 1017.01 1016.57 1016.06 1015.51 1014.96 1014.43 1013.92 1013.46 1013.02 1012.60 1012.19 1011.77 1011.33 1010.87 1010.39 1009.89 1009.37 1008.85 1008.33 1007.78 1007.21
1014.15 1014.54 1014.88 1015.17 1015.44 1015.70 1015.95 1016.22 1016.51 1016.80 1017.08 1017.33 1017.52 1017.62 1017.61 1017.48 1017.23 1016.87 1016.43 1015.92 1015.38 1014.85 1014.33 1013.84 1013.39 1012.97 1012.56 1012.14 1011.71 1011.26 1010.78 1010.27 1009.75 1009.22 1008.69 1008.16 1007.62 1007.06
1013.50 1013.91 1014.27 1014.59 1014.89 1015.19 1015.49 1015.81 1016.14 1016.47 1016.80 1017.08 1017.29 1017.40 1017.40 1017.28 1017.03 1016.67 1016.23 1015.74 1015.22 1014.70 1014.21 1013.75 1013.32 1012.91 1012.51 1012.10 1011.67 1011.20 1010.70 1010.17 1009.63 1009.09 1008.55 1008.02 1007.49 1006.94
1012.83 1013.25 1013.62 1013.96 1014.29 1014.61 1014.95 1015.31 1015.69 1016.07 1016.43 1016.74 1016.97 1017.10 1017.11 1017.00 1016.76 1016.41 1015.99 1015.51 1015.02 1014.53 1014.07 1013.64 1013.23 1012.85 1012.46 1012.06 1011.63 1011.15 1010.64 1010.11 1009.55 1009.00 1008.46 1007.93 1007.42 1006.91
1012.20 1012.61 1012.99 1013.34 1013.68 1014.03 1014.40 1014.80 1015.21 1015.62 1016.01 1016.34 1016.60 1016.74 1016.76 1016.65 1016.43 1016.09 1015.69 1015.24 1014.77 1014.32 1013.89 1013.49 1013.12 1012.76 1012.40 1012.01 1011.59 1011.12 1010.61 1010.08 1009.53 1008.97 1008.44 1007.94 1007.46 1006.98
Thickness
5561 5561 5560 5561 5560 5559 5559 5559 5559 5560 5563 5564 5561 5560 5558 5558 5558 5557 5557 5558 5558 5559 5559 5559 5559 5559 5560 5560 5559 5559 5559 5558 5557 5556 5555 5555 5555 5555
5550 5550 5549 5549 5548 5547 5546 5546 5546 5546 5549 5551 5548 5546 5545 5545 5546 5546 5547 5548 5548 5548 5548 5548 5549 5548 5549 5549 5549 5549 5548 5547 5547 5547 5546 5545 5546 5546
5540 5539 5538 5538 5536 5535 5534 5533 5532 5532 5533 5536 5534 5533 5532 5533 5534 5534 5535 5536 5536 5537 5538 5538 5537 5537 5537 5537 5537 5536 5535 5535 5535 5535 5535 5535 5535 5536
5529 5529 5528 5527 5525 5523 5522 5522 5521 5521 5520 5521 5521 5520 5520 5520 5521 5522 5523 5524 5524 5526 5527 5527 5526 5526 5526 5525 5524 5523 5522 5522 5522 5522 5522 5522 5523 5524
5519 5519 5517 5515 5513 5511 5511 5511 5510 5510 5509 5509 5510 5509 5508 5508 5508 5509 5510 5511 5512 5514 5514 5515 5514 5514 5513 5512 5511 5510 5509 5509 5509 5509 5509 5509 5510 5511
5510 5509 5507 5505 5503 5502 5501 5500 5499 5497 5497 5497 5497 5497 5497 5496 5495 5496 5498 5499 5500 5500 5501 5501 5501 5500 5499 5499 5498 5497 5496 5496 5496 5496 5496 5497 5498 5501
5499 5498 5497 5496 5494 5493 5492 5490 5488 5486 5485 5485 5486 5486 5485 5484 5483 5483 5484 5486 5487 5487 5487 5487 5487 5487 5485 5485 5484 5484 5484 5484 5485 5485 5485 5486 5488 5490
5489 5487 5486 5486 5485 5483 5481 5480 5478 5475 5474 5473 5473 5473 5473 5471 5471 5470 5470 5471 5473 5474 5471 5473 5472 5472 5472 5471 5471 5472 5473 5473 5473 5474 5475 5476 5478 5480
5479 5477 5476 5475 5473 5471 5469 5468 5466 5464 5463 5461 5460 5460 5460 5459 5458 5458 5456 5456 5458 5458 5456 5458 5458 5458 5459 5459 5459 5460 5460 5461 5462 5463 5464 5466 5468 5470
5469 5467 5465 5464 5462 5461 5459 5457 5454 5452 5450 5449 5448 5447 5446 5445 5444 5443 5442 5443 5444 5442 5440 5442 5444 5445 5447 5447 5447 5447 5448 5449 5450 5451 5453 5455 5457 5460
5459 5457 5455 5454 5453 5452 5449 5446 5444 5441 5439 5438 5436 5434 5433 5432 5430 5429 5427 5427 5429 5429 5425 5425 5429 5430 5433 5435 5435 5434 5435 5436 5437 5439 5442 5444 5447 5449
5449 5446 5445 5444 5443 5440 5438 5435 5433 5430 5428 5426 5423 5421 5419 5417 5415 5413 5411 5410 5410 5412 5412 5410 5412 5412 5419 5423 5422 5422 5422 5423 5425 5427 5430 5433 5435 5438
5438 5436 5434 5433 5431 5430 5427 5424 5422 5419 5416 5413 5410 5408 5406 5404 5402 5399 5396 5394 5394 5395 5396 5394 5396 5396 5397 5405 5409 5409 5409 5410 5412 5415 5417 5420 5423 5426
5428 5425 5422 5421 5420 5418 5415 5413 5410 5407 5402 5400 5398 5396 5393 5391 5389 5386 5384 5382 5382 5382 5382 5381 5381 5383 5384 5388 5392 5395 5396 5397 5399 5401 5405 5408 5411 5414
5418 5415 5412 5410 5408 5405 5402 5400 5396 5392 5390 5387 5385 5382 5380 5377 5376 5375 5373 5372 5372 5371 5371 5370 5370 5371 5372 5374 5377 5380 5382 5385 5386 5389 5391 5395 5398 5402
5407 5404 5401 5398 5395 5392 5389 5385 5382 5379 5376 5373 5370 5369 5367 5365 5363 5362 5361 5361 5361 5362 5362 5361 5360 5360 5362 5363 5365 5367 5369 5371 5375 5376 5380 5384 5387 5391
5396 5391 5387 5383 5380 5378 5374 5371 5368 5365 5362 5358 5356 5354 5354 5352 5351 5350 5349 5349 5349 5350 5352 5352 5352 5352 5353 5354 5356 5359 5360 5362 5364 5366 5370 5375 5378 5381
5386 5380 5375 5371 5368 5365 5361 5358 5354 5351 5348 5345 5342 5341 5339 5339 5338 5338 5337 5337 5337 5339 5340 5341 5342 5343 5344 5347 5348 5349 5351 5353 5355 5357 5360 5364 5370 5373
5376 5370 5366 5362 5358 5353 5349 5345 5342 5339 5335 5332 5330 5328 5327 5327 5326 5326 5326 5326 5327 5328 5329 5329 5330 5331 5332 5335 5339 5340 5341 5344 5346 5348 5351 5355 5359 5364
5366 5361 5356 5352 5347 5343 5339 5334 5331 5328 5324 5322 5319 5317 5316 5315 5316 5316 5317 5317 5318 5319 5320 5320 5320 5320 5321 5323 5326 5330 5333 5335 5338 5341 5344 5347 5351 5355
5357 5352 5348 5343 5338 5333 5329 5325 5321 5317 5314 5312 5310 5308 5306 5305 5306 5306 5307 5309 5310 5310 5311 5313 5313 5314 5313 5314 5317 5322 5326 5329 5330 5333 5336 5340 5343 5346
5349 5344 5339 5334 5330 5325 5320 5316 5312 5308 5305 5303 5301 5299 5298 5297 5297 5297 5298 5299 5301 5302 5303 5304 5306 5307 5307 5308 5310 5314 5317 5321 5324 5327 5330 5332 5335 5338
5341 5336 5331 5326 5322 5317 5312 5307 5303 5300 5298 5296 5294 5292 5290 5290 5290 5290 5291 5292 5293 5294 5296 5297 5299 5300 5300 5301 5303 5305 5309 5312 5316 5319 5322 5326 5330 5333